EW0600 Weather Reports


Display with metric or nautical units.
time (UTC)temp
F
wind
direction
speed
MPH
gust
MPH
rain 1hr
in
rain 24hr
in
rain mn
in
humidity
%
barometer
mb
20260510141639 50 331 3.0 8.0 0.00 0.00 0.00 55 1017.2
20260510141503 50 7 3.0 9.0 0.00 0.00 0.00 57 1017.3
20260510140639 50 1 2.0 7.0 0.00 0.00 0.00 56 1017.1
20260510134502 49 65 3.0 8.0 0.00 0.00 0.00 59 1017.1
20260510134433 49 49 2.0 7.0 0.00 0.00 0.00 59 1017.1
20260510133403 48 64 1.0 4.0 0.00 0.00 0.00 62 1017.1
20260510133103 47 62 1.0 5.0 0.00 0.00 0.00 63 1017.1
20260510132409 47 43 2.0 6.0 0.00 0.00 0.00 64 1017.0
20260510131503 46 41 2.0 7.0 0.00 0.00 0.00 64 1016.9
20260510125105 44 330 1.0 3.0 0.00 0.00 0.00 70 1016.8
20260510124507 43 322 1.0 4.0 0.00 0.00 0.00 71 1016.9
20260510124057 43 314 1.0 3.0 0.00 0.00 0.00 71 1016.8
20260510123117 41 274 1.0 2.0 0.00 0.00 0.00 72 1016.7
20260510123037 42 274 0.0 1.0 0.00 0.00 0.00 72 1016.6
20260510121503 40 262 0.0 1.0 0.00 0.00 0.00 72 1016.5
20260510120929 40 262 0.0 0.0 0.00 0.00 0.00 72 1016.3
20260510115920 39 262 0.0 0.0 0.00 0.00 0.00 72 1016.2
20260510114925 39 262 0.0 0.0 0.00 0.00 0.00 72 1016.0
20260510114503 38 233 0.0 1.0 0.00 0.00 0.00 73 1016.0
20260510113102 37 233 0.0 1.0 0.00 0.00 0.00 75 1015.8
20260510111606 38 179 0.0 0.0 0.00 0.00 0.00 75 1015.6
20260510111503 37 66 0.0 2.0 0.00 0.00 0.00 75 1015.7
20260510110546 38 225 0.0 0.0 0.00 0.00 0.00 74 1015.5
20260510105511 38 225 0.0 0.0 0.00 0.00 0.00 73 1015.4
20260510104511 38 124 0.0 0.0 0.00 0.00 0.00 74 1015.2
20260510104509 37 124 1.0 2.0 0.00 0.00 0.00 74 1015.2
20260510103459 39 226 0.0 1.0 0.00 0.00 0.00 71 1015.1
20260510103109 38 226 0.0 1.0 0.00 0.00 0.00 72 1015.1
20260510102432 38 226 0.0 0.0 0.00 0.00 0.00 72 1015.0
20260510101502 38 226 0.0 1.0 0.00 0.00 0.00 73 1014.9
20260510100255 40 208 1.0 2.0 0.00 0.00 0.00 70 1014.5
20260510100105 39 212 1.0 3.0 0.00 0.00 0.00 69 1014.6
20260510095317 39 205 1.0 2.0 0.00 0.00 0.00 69 1014.5
20260510094503 38 200 2.0 3.0 0.00 0.00 0.00 71 1014.5
20260510094252 39 206 1.0 2.0 0.00 0.00 0.00 71 1014.5
20260510093228 39 213 1.0 2.0 0.00 0.00 0.00 73 1014.3
20260510093105 38 213 2.0 3.0 0.00 0.00 0.00 74 1014.3
20260510092230 38 215 0.0 1.0 0.00 0.00 0.00 76 1014.2
20260510091504 38 231 1.0 2.0 0.00 0.00 0.00 70 1014.3
20260510091236 39 231 1.0 1.0 0.00 0.00 0.00 71 1014.2
20260510090246 40 231 0.0 1.0 0.00 0.00 0.00 70 1014.0
20260510090105 39 231 1.0 2.0 0.00 0.00 0.00 70 1014.1
20260510085259 40 231 0.0 1.0 0.00 0.00 0.00 70 1013.9
20260510084503 40 204 1.0 2.0 0.00 0.00 0.00 69 1013.9
20260510084239 40 198 0.0 1.0 0.00 0.00 0.00 69 1013.7
20260510083225 40 212 1.0 1.0 0.00 0.00 0.00 68 1013.7
20260510083103 40 212 2.0 2.0 0.00 0.00 0.00 68 1013.6
20260510082228 40 203 1.0 2.0 0.00 0.00 0.00 69 1013.5
20260510081510 39 205 1.0 3.0 0.00 0.00 0.00 72 1013.4
20260510081250 40 203 2.0 2.0 0.00 0.00 0.00 72 1013.4
20260510080107 39 226 1.0 1.0 0.00 0.00 0.00 74 1013.4
20260510075206 40 221 0.0 2.0 0.00 0.00 0.00 68 1013.3
20260510074502 39 221 2.0 3.0 0.00 0.00 0.00 75 1013.3
20260510074138 40 230 1.0 1.0 0.00 0.00 0.00 74 1013.2
20260510073135 41 222 1.0 1.0 0.00 0.00 0.00 68 1013.2
20260510073117 40 222 1.0 2.0 0.00 0.00 0.00 66 1013.2
20260510072157 41 222 0.0 1.0 0.00 0.00 0.00 64 1013.3
20260510071501 40 219 0.0 1.0 0.00 0.00 0.00 64 1013.2
20260510071202 41 219 0.0 0.0 0.00 0.00 0.00 64 1013.2
20260510070213 42 219 0.0 0.0 0.00 0.00 0.00 63 1013.3
20260510065220 41 219 0.0 0.0 0.00 0.00 0.00 65 1013.3
20260510064502 42 216 1.0 1.0 0.00 0.00 0.00 65 1013.2
20260510063115 43 216 0.0 0.0 0.00 0.00 0.00 63 1013.0
20260510063106 43 217 0.0 3.0 0.00 0.00 0.00 63 1013.1
20260510062041 43 249 1.0 2.0 0.00 0.00 0.00 61 1013.0
20260510061502 43 250 2.0 2.0 0.00 0.00 0.00 60 1013.0
20260510061056 43 250 0.0 1.0 0.00 0.00 0.00 60 1013.0
20260510060101 42 250 0.0 1.0 0.00 0.00 0.00 63 1013.1
20260510055117 42 250 1.0 1.0 0.00 0.00 0.00 64 1013.0
20260510054503 42 250 1.0 2.0 0.00 0.00 0.00 65 1013.0
20260510054040 42 250 1.0 2.0 0.00 0.00 0.00 62 1012.9
20260510053104 44 240 3.0 3.0 0.00 0.00 0.00 60 1012.8
20260510053012 45 230 2.0 2.0 0.00 0.00 0.00 59 1012.7
20260510051959 45 316 0.0 1.0 0.00 0.00 0.00 56 1012.6
20260510051511 45 328 0.0 1.0 0.00 0.00 0.00 56 1012.6
20260510050947 47 328 0.0 2.0 0.00 0.00 0.00 54 1012.6
20260510050002 47 328 2.0 4.0 0.00 0.00 0.00 55 1012.6
20260510045001 47 330 3.0 5.0 0.00 0.00 0.00 55 1012.6
20260510044508 46 330 4.0 6.0 0.00 0.00 0.00 55 1012.7
20260510044013 47 325 4.0 8.0 0.00 0.00 0.00 54 1012.6
20260510043104 47 322 5.0 9.0 0.00 0.00 0.00 53 1012.6
20260510043033 47 321 4.0 8.0 0.00 0.00 0.00 53 1012.5
20260510042022 47 328 4.0 7.0 0.00 0.00 0.00 53 1012.4
20260510041502 47 315 4.0 6.0 0.00 0.00 0.00 53 1012.4
20260510040958 47 314 4.0 6.0 0.00 0.00 0.00 53 1012.3
20260510040004 48 300 3.0 6.0 0.00 0.00 0.00 51 1012.2
20260510035014 49 304 4.0 7.0 0.00 0.00 0.00 50 1012.0
20260510034503 49 303 5.0 7.0 0.00 0.00 0.00 49 1012.0
20260510034006 50 295 5.0 7.0 0.00 0.00 0.00 49 1011.9
20260510033122 49 294 6.0 8.0 0.00 0.00 0.00 49 1011.9
20260510032959 50 303 4.0 7.0 0.00 0.00 0.00 49 1011.8
20260510032016 50 297 4.0 7.0 0.00 0.00 0.00 49 1011.7
20260510031503 49 297 4.0 6.0 0.00 0.00 0.00 49 1011.7
20260510024504 51 308 8.0 10.0 0.00 0.00 0.00 47 1011.2
20260510023439 50 301 4.0 6.0 0.00 0.00 0.00 47 1011.0
20260510023103 50 302 3.0 8.0 0.00 0.00 0.00 48 1010.9
20260510021507 52 298 7.0 11.0 0.00 0.00 0.00 44 1010.5
20260510020126 53 311 6.0 10.0 0.00 0.00 0.00 43 1010.1
20260510020110 52 310 5.0 10.0 0.00 0.00 0.00 43 1010.1
20260510015123 53 319 7.0 10.0 0.00 0.00 0.00 43 1009.8
20260510014502 53 316 8.0 11.0 0.00 0.00 0.00 42 1009.7
20260510014116 54 316 8.0 12.0 0.00 0.00 0.00 42 1009.6
20260510013106 53 308 10.0 13.0 0.00 0.00 0.00 41 1009.6
20260510011505 55 320 15.0 19.0 0.00 0.00 0.00 39 1009.2
20260510010752 55 322 12.0 20.0 0.00 0.00 0.00 39 1009.1
20260510005734 56 326 14.0 20.0 0.00 0.00 0.00 37 1009.0
20260510004728 57 321 13.0 23.0 0.00 0.00 0.00 38 1008.8
20260510004502 56 330 13.0 20.0 0.00 0.00 0.00 38 1008.7
20260510003103 57 322 17.0 24.0 0.00 0.00 0.00 36 1008.6
20260510002555 57 343 12.0 20.0 0.00 0.00 0.00 37 1008.5
20260510001537 58 336 15.0 21.0 0.00 0.00 0.00 35 1008.5
20260510001506 57 328 17.0 22.0 0.00 0.00 0.00 34 1008.4
20260510000104 57 334 10.0 22.0 0.00 0.00 0.00 36 1008.3
20260509234503 58 318 11.0 26.0 0.00 0.00 0.00 36 1008.1
20260509234210 58 311 15.0 25.0 0.00 0.00 0.00 35 1008.0
20260509233216 58 335 15.0 24.0 0.00 0.00 0.00 37 1007.9
20260509233102 58 330 16.0 25.0 0.00 0.00 0.00 36 1007.9
20260509232203 58 301 16.0 24.0 0.00 0.00 0.00 36 1007.8
20260509231503 58 301 16.0 24.0 0.00 0.00 0.00 37 1007.8
20260509231226 58 322 16.0 25.0 0.00 0.00 0.00 35 1007.8
20260509230103 58 325 14.0 25.0 0.00 0.00 0.00 34 1007.6
20260509224502 58 323 17.0 26.0 0.00 0.00 0.00 33 1007.4
20260509223927 59 314 16.0 24.0 0.00 0.00 0.00 33 1007.2
20260509223104 58 325 16.0 24.0 0.00 0.00 0.00 33 1007.1
20260509222900 59 336 16.0 26.0 0.00 0.00 0.00 33 1007.1
20260509221913 59 341 14.0 26.0 0.00 0.00 0.00 34 1007.1
20260509221503 59 326 16.0 27.0 0.00 0.00 0.00 37 1007.1
20260509220849 59 345 14.0 24.0 0.00 0.00 0.00 34 1007.0
20260509220105 59 306 12.0 25.0 0.00 0.00 0.00 37 1006.9
20260509215854 59 328 13.0 24.0 0.00 0.00 0.00 38 1006.9
20260509214848 58 338 16.0 23.0 0.00 0.00 0.00 36 1007.0
20260509214503 58 319 20.0 24.0 0.00 0.00 0.00 37 1007.0
20260509213846 59 323 13.0 23.0 0.00 0.00 0.00 35 1006.9
20260509213104 59 282 16.0 24.0 0.00 0.00 0.00 35 1006.8
20260509211717 58 321 19.0 28.0 0.00 0.00 0.00 35 1006.7
20260509211504 58 318 17.0 29.0 0.00 0.00 0.00 35 1006.8
20260509210729 59 334 16.0 28.0 0.00 0.00 0.00 34 1006.7
20260509210109 58 322 14.0 23.0 0.00 0.00 0.00 36 1006.7
20260509205652 58 33 13.0 22.0 0.00 0.00 0.00 36 1006.5
20260509204702 58 18 17.0 26.0 0.00 0.00 0.00 35 1006.6
20260509204502 58 326 19.0 27.0 0.00 0.00 0.00 35 1006.7
20260509203658 59 338 16.0 26.0 0.00 0.00 0.00 36 1006.4
20260509203102 57 333 15.0 26.0 0.00 0.00 0.00 36 1006.5
20260509202624 58 311 16.0 23.0 0.00 0.00 0.00 36 1006.4
20260509201611 58 342 16.0 26.0 0.00 0.00 0.00 35 1006.4
20260509201503 58 347 14.0 25.0 0.00 0.00 0.00 36 1006.4
20260509200544 58 5 15.0 26.0 0.00 0.00 0.00 38 1006.2
20260509195530 58 309 15.0 25.0 0.00 0.00 0.00 38 1006.2
20260509194531 57 293 17.0 28.0 0.00 0.00 0.00 36 1006.1
20260509194504 57 311 15.0 29.0 0.00 0.00 0.00 36 1006.2
20260509193455 58 332 15.0 28.0 0.00 0.00 0.00 38 1006.0
20260509193103 58 316 15.0 25.0 0.00 0.00 0.00 39 1006.1
20260509192455 57 322 16.0 28.0 0.00 0.00 0.00 39 1005.9
20260509191502 57 57 15.0 28.0 0.00 0.00 0.00 39 1005.9
20260509185231 57 300 18.0 27.0 0.00 0.00 0.00 41 1005.7
20260509184502 56 326 21.0 28.0 0.00 0.00 0.00 41 1005.7
20260509184213 57 320 21.0 27.0 0.00 0.00 0.00 41 1005.7
20260509183137 56 325 16.0 32.0 0.00 0.00 0.00 46 1005.5
20260509183103 56 323 15.0 27.0 0.00 0.00 0.00 44 1005.6
20260509182132 56 333 20.0 32.0 0.00 0.00 0.00 40 1005.6
20260509181502 56 335 23.0 33.0 0.00 0.00 0.00 43 1005.4
20260509181124 57 310 18.0 28.0 0.00 0.00 0.00 43 1005.3
20260509180104 56 312 17.0 28.0 0.00 0.00 0.00 41 1005.3
20260509175040 57 327 18.0 28.0 0.00 0.00 0.00 42 1005.2
20260509174507 56 345 16.0 28.0 0.00 0.00 0.00 44 1005.2
20260509174037 56 321 19.0 31.0 0.00 0.00 0.00 42 1005.1
20260509173120 56 328 19.0 32.0 0.00 0.00 0.00 42 1005.2
20260509173031 56 316 21.0 31.0 0.00 0.00 0.00 42 1005.1
20260509172049 57 320 22.0 30.0 0.00 0.00 0.00 43 1005.0
20260509171505 56 323 23.0 32.0 0.00 0.00 0.00 41 1004.9
20260509171036 56 309 22.0 32.0 0.00 0.00 0.00 44 1004.9
20260509170124 56 302 20.0 33.0 0.00 0.00 0.00 45 1004.8
20260509164904 56 36 18.0 27.0 0.00 0.00 0.00 46 1004.8
20260509164503 56 321 18.0 28.0 0.00 0.00 0.00 44 1004.8
20260509163851 56 328 16.0 26.0 0.00 0.00 0.00 43 1004.8
20260509163102 56 45 13.0 27.0 0.00 0.00 0.00 46 1004.8
20260509161735 56 344 18.0 30.0 0.00 0.00 0.00 45 1004.6
20260509161503 55 19 16.0 31.0 0.00 0.00 0.00 44 1004.5
20260509160709 56 330 20.0 31.0 0.00 0.00 0.00 44 1004.3
20260509155728 55 333 21.0 31.0 0.00 0.00 0.00 46 1004.4
20260509154747 56 313 15.0 25.0 0.00 0.00 0.00 49 1004.3
20260509154503 55 342 14.0 19.0 0.00 0.00 0.00 53 1004.3
20260509153712 55 313 14.0 24.0 0.00 0.00 0.00 54 1004.1
20260509153102 54 312 18.0 25.0 0.00 0.00 0.00 52 1004.1
20260509151539 53 332 17.0 27.0 0.00 0.00 0.00 56 1003.9
20260509151502 53 330 17.0 28.0 0.00 0.00 0.00 57 1004.0
20260509150510 53 336 13.0 23.0 0.00 0.00 0.00 59 1003.8
20260509145521 53 330 15.0 26.0 0.00 0.00 0.00 61 1003.7
20260509144532 53 25 17.0 26.0 0.00 0.00 0.00 59 1003.6
20260509144502 52 332 17.0 27.0 0.00 0.00 0.00 59 1003.7
20260509143107 51 330 18.0 24.0 0.00 0.00 0.00 66 1003.4